,,,PA_Meas_PMT16A,,PR_Meas_QMR101_102,,RH_Meas_QMH101,,SR_Meas_QMS101,,TA_Meas_QMH101,,GenWind,,GenWind,
date,time,status,PA,status,PR,status,RH,status,SR,status,TA,status,DirAvg,status,SpdAvg,
2012-02-25, 00:00:05,VALID,1002.78,VALID,0,VALID,83.727,VALID,0,VALID,25.4734,VALID,45,VALID,0.739453,
2012-02-25, 00:01:05,VALID,1002.78,VALID,0,VALID,83.8414,VALID,0,VALID,25.5337,VALID,47,VALID,0.537891,
2012-02-25, 00:02:05,VALID,1002.76,VALID,0,VALID,83.9482,VALID,0,VALID,25.4928,VALID,30,VALID,0.532031,
2012-02-25, 00:03:05,VALID,1002.72,VALID,0,VALID,83.3226,VALID,0,VALID,25.5532,VALID,25,VALID,0.823047,
2012-02-25, 00:04:05,VALID,1002.74,VALID,0,VALID,83.1548,VALID,0,VALID,25.6116,VALID,25,VALID,0,
2012-02-25, 00:05:05,VALID,1002.73,VALID,0,VALID,83.2235,VALID,0,VALID,25.6506,VALID,25,VALID,0,
2012-02-25, 00:06:05,VALID,1002.69,VALID,0,VALID,83.3608,VALID,0,VALID,25.6097,VALID,25,VALID,0,
2012-02-25, 00:07:05,VALID,1002.71,VALID,0,VALID,83.6964,VALID,0,VALID,25.6116,VALID,25,VALID,0,
2012-02-25, 00:08:05,VALID,1002.74,VALID,0,VALID,84.1084,VALID,0,VALID,25.5727,VALID,24,VALID,0.401953,
2012-02-25, 00:09:05,VALID,1002.74,VALID,0,VALID,84.4288,VALID,0,VALID,25.5337,VALID,24,VALID,0.664063,
2012-02-25, 00:10:05,VALID,1002.69,VALID,0,VALID,84.8637,VALID,0,VALID,25.4753,VALID,24,VALID,0.397656,
2012-02-25, 00:11:05,VALID,1002.65,VALID,0,VALID,84.8026,VALID,0,VALID,25.4363,VALID,24,VALID,0.350781,
2012-02-25, 00:12:05,VALID,1002.63,VALID,0,VALID,84.7721,VALID,0,VALID,25.4169,VALID,24,VALID,0,
2012-02-25, 00:13:05,VALID,1002.61,VALID,0,VALID,85.0391,VALID,0,VALID,25.4169,VALID,24,VALID,0.158984,
2012-02-25, 00:14:05,VALID,1002.6,VALID,0,VALID,84.9018,VALID,0,VALID,25.3974,VALID,24,VALID,0.588281,
2012-02-25, 00:15:05,VALID,1002.58,VALID,0,VALID,84.5433,VALID,0,VALID,25.3974,VALID,24,VALID,0.651953,
2012-02-25, 00:16:05,VALID,1002.54,VALID,0,VALID,84.1389,VALID,0,VALID,25.4363,VALID,23,VALID,0.63125,
2012-02-25, 00:17:05,VALID,1002.54,VALID,0,VALID,84.1694,VALID,0,VALID,25.4928,VALID,23,VALID,0.277734,
2012-02-25, 00:18:05,VALID,1002.51,VALID,0,VALID,83.5896,VALID,0,VALID,25.5532,VALID,22,VALID,1.2418,
2012-02-25, 00:19:05,VALID,1002.51,VALID,0,VALID,83.0709,VALID,0,VALID,25.6506,VALID,12,VALID,0.650781,
2012-02-25, 00:20:05,VALID,1002.49,VALID,0,VALID,82.8039,VALID,0,VALID,25.7285,VALID,24,VALID,0.535156,
2012-02-25, 00:21:05,VALID,1002.48,VALID,0,VALID,82.6055,VALID,0,VALID,25.7869,VALID,23,VALID,0.451953,
2012-02-25, 00:22:05,VALID,1002.46,VALID,0,VALID,82.4758,VALID,0,VALID,25.785,VALID,15,VALID,0.598437,
2012-02-25, 00:23:05,VALID,1002.49,VALID,0,VALID,82.3385,VALID,0,VALID,25.8064,VALID,16,VALID,0.215625,
2012-02-25, 00:24:05,VALID,1002.47,VALID,0,VALID,82.3766,VALID,0,VALID,25.8044,VALID,16,VALID,0.205078,
2012-02-25, 00:25:05,VALID,1002.47,VALID,0,VALID,82.5597,VALID,0,VALID,25.8064,VALID,16,VALID,0.416016,
2012-02-25, 00:26:05,VALID,1002.44,VALID,0,VALID,82.5445,VALID,0,VALID,25.8064,VALID,16,VALID,0.486328,
2012-02-25, 00:27:05,VALID,1002.43,VALID,0,VALID,82.2546,VALID,0,VALID,25.8064,VALID,59,VALID,0.428906,
2012-02-25, 00:28:05,VALID,1002.43,VALID,0,VALID,82.0562,VALID,0,VALID,25.8044,VALID,59,VALID,0.294141,
2012-02-25, 00:29:05,VALID,1002.42,VALID,0,VALID,81.9189,VALID,0,VALID,25.8453,VALID,32,VALID,0.550391,
2012-02-25, 00:30:05,VALID,1002.38,VALID,0,VALID,81.896,VALID,0,VALID,25.8823,VALID,71,VALID,0.267969,
2012-02-25, 00:31:05,VALID,1002.37,VALID,0,VALID,81.9647,VALID,0,VALID,25.9038,VALID,26,VALID,0.677344,
2012-02-25, 00:32:05,VALID,1002.34,VALID,0,VALID,81.8197,VALID,0,VALID,25.9038,VALID,68,VALID,0.442969,
2012-02-25, 00:33:05,VALID,1002.32,VALID,0,VALID,81.9418,VALID,0,VALID,25.9038,VALID,32,VALID,0.905859,
2012-02-25, 00:34:05,VALID,1002.27,VALID,0,VALID,81.7435,VALID,0,VALID,25.9232,VALID,43,VALID,0.690234,
2012-02-25, 00:35:05,VALID,1002.24,VALID,0,VALID,81.6672,VALID,0,VALID,25.9408,VALID,4,VALID,0.537891,
2012-02-25, 00:36:05,VALID,1002.22,VALID,0,VALID,81.8426,VALID,0,VALID,25.9427,VALID,4,VALID,0.485156,
2012-02-25, 00:37:05,VALID,1002.2,VALID,0,VALID,81.9876,VALID,0,VALID,25.9018,VALID,4,VALID,0.059375,
2012-02-25, 00:38:05,VALID,1002.17,VALID,0,VALID,81.9418,VALID,0,VALID,25.8823,VALID,13,VALID,0.734375,
2012-02-25, 00:39:05,VALID,1002.16,VALID,0,VALID,82.0791,VALID,0,VALID,25.8823,VALID,13,VALID,0.582031,
2012-02-25, 00:40:05,VALID,1002.16,VALID,0,VALID,82.1402,VALID,0,VALID,25.9038,VALID,17,VALID,1.08711,
2012-02-25, 00:41:05,VALID,1002.16,VALID,0,VALID,82.0639,VALID,0,VALID,25.8434,VALID,25,VALID,0.629297,
2012-02-25, 00:42:05,VALID,1002.14,VALID,0,VALID,82.0639,VALID,0,VALID,25.8648,VALID,23,VALID,0.775391,
2012-02-25, 00:43:05,VALID,1002.12,VALID,0,VALID,81.9876,VALID,0,VALID,25.9038,VALID,25,VALID,0.250391,
2012-02-25, 00:44:05,VALID,1002.08,VALID,0,VALID,82.2851,VALID,0,VALID,25.8434,VALID,27,VALID,0.647266,
2012-02-25, 00:45:05,VALID,1002.07,VALID,0,VALID,82.2241,VALID,0,VALID,25.8064,VALID,89,VALID,0.577344,
2012-02-25, 00:46:05,VALID,1002.06,VALID,0,VALID,82.2775,VALID,0,VALID,25.8064,VALID,79,VALID,0.337109,
2012-02-25, 00:47:05,VALID,1002.03,VALID,0,VALID,82.3004,VALID,0,VALID,25.8064,VALID,79,VALID,0,
2012-02-25, 00:48:05,VALID,1002.01,VALID,0,VALID,82.5826,VALID,0,VALID,25.7869,VALID,79,VALID,0.287891,
2012-02-25, 00:49:05,VALID,1002.01,VALID,0,VALID,82.5292,VALID,0,VALID,25.7265,VALID,79,VALID,0.202734,
2012-02-25, 00:50:05,VALID,1001.98,VALID,0,VALID,82.575,VALID,0,VALID,25.748,VALID,55,VALID,0.289453,
2012-02-25, 00:51:05,VALID,1001.96,VALID,0,VALID,82.6437,VALID,0,VALID,25.7869,VALID,351,VALID,0.202734,
2012-02-25, 00:52:05,VALID,1001.97,VALID,0,VALID,82.5826,VALID,0,VALID,25.7655,VALID,356,VALID,0.3,
2012-02-25, 00:53:05,VALID,1001.94,VALID,0,VALID,82.6971,VALID,0,VALID,25.748,VALID,357,VALID,0.170312,
2012-02-25, 00:54:05,VALID,1001.91,VALID,0,VALID,82.6894,VALID,0,VALID,25.748,VALID,69,VALID,0.743359,
2012-02-25, 00:55:05,VALID,1001.9,VALID,0,VALID,82.636,VALID,0,VALID,25.7674,VALID,41,VALID,0.501953,
2012-02-25, 00:56:05,VALID,1001.9,VALID,0,VALID,82.6437,VALID,0,VALID,25.7655,VALID,24,VALID,0.637891,
2012-02-25, 00:57:05,VALID,1001.88,VALID,0,VALID,82.6208,VALID,0,VALID,25.8064,VALID,24,VALID,0.0625,
2012-02-25, 00:58:05,VALID,1001.89,VALID,0,VALID,82.5292,VALID,0,VALID,25.7655,VALID,45,VALID,0.558594,
2012-02-25, 00:59:05,VALID,1001.89,VALID,0,VALID,82.4987,VALID,0,VALID,25.785,VALID,55,VALID,0.554688,
2012-02-25, 01:00:05,VALID,1001.88,VALID,0,VALID,82.575,VALID,0,VALID,25.8064,VALID,34,VALID,0.771875,
2012-02-25, 01:01:05,VALID,1001.88,VALID,0,VALID,82.575,VALID,0,VALID,25.8064,VALID,42,VALID,0.555469,
2012-02-25, 01:02:05,VALID,1001.87,VALID,0,VALID,82.4377,VALID,0,VALID,25.8064,VALID,49,VALID,0.491016,
2012-02-25, 01:03:05,VALID,1001.85,VALID,0,VALID,82.2851,VALID,0,VALID,25.8239,VALID,46,VALID,0.541797,
2012-02-25, 01:04:05,VALID,1001.83,VALID,0,VALID,82.1707,VALID,0,VALID,25.8434,VALID,22,VALID,0.523047,
2012-02-25, 01:05:05,VALID,1001.84,VALID,0,VALID,82.1859,VALID,0,VALID,25.8434,VALID,22,VALID,0.337109,
2012-02-25, 01:06:05,VALID,1001.83,VALID,0,VALID,82.2546,VALID,0,VALID,25.8434,VALID,25,VALID,0.261328,
2012-02-25, 01:07:05,VALID,1001.82,VALID,0,VALID,82.1859,VALID,0,VALID,25.8453,VALID,92,VALID,0.255078,
2012-02-25, 01:08:05,VALID,1001.81,VALID,0,VALID,81.7969,VALID,0,VALID,25.9018,VALID,82,VALID,1.35508,
2012-02-25, 01:09:05,VALID,1001.8,VALID,0,VALID,81.4688,VALID,0,VALID,25.9408,VALID,86,VALID,0.721484,
2012-02-25, 01:10:05,VALID,1001.76,VALID,0,VALID,81.3467,VALID,0,VALID,25.9602,VALID,68,VALID,0.786328,
2012-02-25, 01:11:05,VALID,1001.8,VALID,0,VALID,81.1255,VALID,0,VALID,26.0187,VALID,86,VALID,1.1418,
2012-02-25, 01:12:05,VALID,1001.76,VALID,0,VALID,80.7898,VALID,0,VALID,26.0576,VALID,81,VALID,1.39844,
2012-02-25, 01:13:05,VALID,1001.76,VALID,0,VALID,80.6144,VALID,0,VALID,26.0985,VALID,102,VALID,1.28633,
2012-02-25, 01:14:05,VALID,1001.71,VALID,0,VALID,80.4847,VALID,0,VALID,26.0771,VALID,49,VALID,0.569141,
2012-02-25, 01:15:05,VALID,1001.71,VALID,0,VALID,80.767,VALID,0,VALID,26.0985,VALID,76,VALID,0.728125,
2012-02-25, 01:16:05,VALID,1001.7,VALID,0,VALID,80.5533,VALID,0,VALID,26.116,VALID,16,VALID,0.846875,
2012-02-25, 01:17:05,VALID,1001.73,VALID,0,VALID,80.5457,VALID,0,VALID,26.0985,VALID,85,VALID,0.844922,
2012-02-25, 01:18:05,VALID,1001.65,VALID,0,VALID,80.3321,VALID,0,VALID,26.0771,VALID,71,VALID,1.18125,
2012-02-25, 01:19:05,VALID,1001.68,VALID,0,VALID,80.4999,VALID,0,VALID,26.0966,VALID,93,VALID,0.254297,
2012-02-25, 01:20:05,VALID,1001.63,VALID,0,VALID,80.4008,VALID,0,VALID,26.118,VALID,72,VALID,0.959766,
2012-02-25, 01:21:05,VALID,1001.63,VALID,0,VALID,80.4771,VALID,0.0815089,VALID,26.1355,VALID,47,VALID,1.39883,
2012-02-25, 01:22:05,VALID,1001.59,VALID,0,VALID,80.2863,VALID,0,VALID,26.1375,VALID,80,VALID,0.705469,
2012-02-25, 01:23:05,VALID,1001.58,VALID,0,VALID,80.4008,VALID,0,VALID,26.0556,VALID,65,VALID,0.663281,
2012-02-25, 01:24:05,VALID,1001.55,VALID,0,VALID,80.2177,VALID,0,VALID,26.0985,VALID,56,VALID,0.654688,
2012-02-25, 01:25:05,VALID,1001.52,VALID,0,VALID,80.0498,VALID,0,VALID,26.118,VALID,79,VALID,1.61133,
2012-02-25, 01:26:05,VALID,1001.49,VALID,0,VALID,80.0727,VALID,0,VALID,26.116,VALID,92,VALID,0.966797,
2012-02-25, 01:27:05,VALID,1001.47,VALID,0,VALID,80.0346,VALID,0,VALID,26.1375,VALID,57,VALID,1.19219,
2012-02-25, 01:28:05,VALID,1001.45,VALID,0,VALID,80.0651,VALID,0,VALID,26.1375,VALID,66,VALID,0.915234,
2012-02-25, 01:29:05,VALID,1001.43,VALID,0,VALID,80.1948,VALID,0,VALID,26.0966,VALID,56,VALID,0.44375,
2012-02-25, 01:30:05,VALID,1001.42,VALID,0,VALID,80.1185,VALID,0,VALID,26.0791,VALID,67,VALID,0.423828,
2012-02-25, 01:31:05,VALID,1001.46,VALID,0,VALID,80.1643,VALID,0,VALID,26.0576,VALID,43,VALID,0.392969,
2012-02-25, 01:32:05,VALID,1001.45,VALID,0,VALID,80.0804,VALID,0,VALID,26.0791,VALID,71,VALID,0.805469,
2012-02-25, 01:33:05,VALID,1001.41,VALID,0,VALID,79.8896,VALID,0,VALID,26.0985,VALID,53,VALID,0.832031,
2012-02-25, 01:34:05,VALID,1001.39,VALID,0,VALID,79.6455,VALID,0,VALID,26.1375,VALID,65,VALID,1.1707,
2012-02-25, 01:35:05,VALID,1001.41,VALID,0,VALID,79.5235,VALID,0,VALID,26.157,VALID,54,VALID,0.659375,
2012-02-25, 01:36:05,VALID,1001.38,VALID,0,VALID,79.5006,VALID,0,VALID,26.1784,VALID,57,VALID,0.641797,
2012-02-25, 01:37:05,VALID,1001.35,VALID,0,VALID,79.6531,VALID,0,VALID,26.157,VALID,75,VALID,0.278906,
2012-02-25, 01:38:05,VALID,1001.36,VALID,0,VALID,79.5463,VALID,0,VALID,26.159,VALID,80,VALID,1.14492,
2012-02-25, 01:39:05,VALID,1001.31,VALID,0,VALID,79.142,VALID,0,VALID,26.1765,VALID,58,VALID,2.11953,
2012-02-25, 01:40:05,VALID,1001.32,VALID,0,VALID,79.2107,VALID,0,VALID,26.194,VALID,93,VALID,0.566797,
2012-02-25, 01:41:05,VALID,1001.3,VALID,0,VALID,78.936,VALID,0,VALID,26.1959,VALID,63,VALID,0.994141,
2012-02-25, 01:42:05,VALID,1001.32,VALID,0,VALID,78.9284,VALID,0,VALID,26.2134,VALID,87,VALID,1.03164,
2012-02-25, 01:43:05,VALID,1001.29,VALID,0,VALID,78.7682,VALID,0,VALID,26.2134,VALID,65,VALID,1.0125,
2012-02-25, 01:44:05,VALID,1001.26,VALID,0,VALID,78.8674,VALID,0,VALID,26.2349,VALID,26,VALID,0.664453,
2012-02-25, 01:45:05,VALID,1001.25,VALID,0,VALID,79.2107,VALID,0,VALID,26.1765,VALID,24,VALID,0.635938,
2012-02-25, 01:46:05,VALID,1001.23,VALID,0,VALID,79.348,VALID,0,VALID,26.1375,VALID,74,VALID,0.716406,
2012-02-25, 01:47:05,VALID,1001.22,VALID,0,VALID,79.6913,VALID,0,VALID,26.0985,VALID,57,VALID,0.540625,
2012-02-25, 01:48:05,VALID,1001.21,VALID,0,VALID,79.9659,VALID,0,VALID,26.0187,VALID,82,VALID,0.49375,
2012-02-25, 01:49:05,VALID,1001.18,VALID,0,VALID,79.8133,VALID,0,VALID,26.0206,VALID,39,VALID,1.09102,
2012-02-25, 01:50:05,VALID,1001.19,VALID,0,VALID,79.9202,VALID,0,VALID,26.0206,VALID,56,VALID,0.562891,
2012-02-25, 01:51:05,VALID,1001.18,VALID,0,VALID,79.821,VALID,0,VALID,26.0031,VALID,31,VALID,1.21055,
2012-02-25, 01:52:05,VALID,1001.14,VALID,0,VALID,80.2558,VALID,0,VALID,25.9232,VALID,42,VALID,0.414844,
2012-02-25, 01:53:05,VALID,1001.13,VALID,0,VALID,80.2177,VALID,0,VALID,25.9038,VALID,24,VALID,1.15937,
2012-02-25, 01:54:05,VALID,1001.13,VALID,0,VALID,80.4542,VALID,0.0815089,VALID,25.8629,VALID,68,VALID,0.421875,
2012-02-25, 01:55:05,VALID,1001.1,VALID,0,VALID,80.5457,VALID,0.0815089,VALID,25.8219,VALID,43,VALID,0.661328,
2012-02-25, 01:56:05,VALID,1001.07,VALID,0,VALID,80.561,VALID,0,VALID,25.8044,VALID,75,VALID,1.07187,
2012-02-25, 01:57:05,VALID,1001.08,VALID,0,VALID,80.4999,VALID,0.0815089,VALID,25.8239,VALID,40,VALID,1.08047,
2012-02-25, 01:58:05,VALID,1001.09,VALID,0,VALID,80.4237,VALID,0.0815089,VALID,25.8219,VALID,74,VALID,0.737109,
2012-02-25, 01:59:05,VALID,1001.11,VALID,0,VALID,80.4237,VALID,0.0815089,VALID,25.8434,VALID,29,VALID,0.350781,
2012-02-25, 02:00:05,VALID,1001.08,VALID,0,VALID,80.3092,VALID,0.0815089,VALID,25.8434,VALID,41,VALID,0.833984,
2012-02-25, 02:01:05,VALID,1001.09,VALID,0,VALID,80.4237,VALID,0.0815089,VALID,25.8239,VALID,75,VALID,0.763672,
2012-02-25, 02:02:05,VALID,1001.07,VALID,0,VALID,80.4618,VALID,0.0815089,VALID,25.8239,VALID,59,VALID,0.601172,
2012-02-25, 02:03:05,VALID,1001.06,VALID,0,VALID,80.7059,VALID,0,VALID,25.783,VALID,45,VALID,0.584766,
2012-02-25, 02:04:05,VALID,1001.07,VALID,0,VALID,80.7441,VALID,0.0815089,VALID,25.785,VALID,82,VALID,0.501172,
2012-02-25, 02:05:05,VALID,1001.04,VALID,0,VALID,80.7059,VALID,0.0815089,VALID,25.7655,VALID,46,VALID,0.729297,
2012-02-25, 02:06:04,VALID,1001.04,VALID,0,VALID,80.8966,VALID,0.0815089,VALID,25.746,VALID,63,VALID,0.5375,
2012-02-25, 02:07:04,VALID,1001.03,VALID,0,VALID,81.095,VALID,0.0815089,VALID,25.746,VALID,46,VALID,0.946484,
2012-02-25, 02:08:04,VALID,1001,VALID,0,VALID,81.0034,VALID,0.0815089,VALID,25.7051,VALID,30,VALID,0.455469,
2012-02-25, 02:09:04,VALID,1001.01,VALID,0,VALID,80.9882,VALID,0,VALID,25.6876,VALID,48,VALID,0.748438,
2012-02-25, 02:10:04,VALID,1000.99,VALID,0,VALID,81.0111,VALID,0,VALID,25.709,VALID,58,VALID,0.732813,
2012-02-25, 02:11:04,VALID,1000.98,VALID,0,VALID,81.0492,VALID,0,VALID,25.7285,VALID,73,VALID,0.620313,
2012-02-25, 02:12:04,VALID,1000.98,VALID,0,VALID,80.8585,VALID,0,VALID,25.7285,VALID,53,VALID,0.989062,
2012-02-25, 02:13:04,VALID,1000.95,VALID,0,VALID,80.8432,VALID,0,VALID,25.748,VALID,82,VALID,0.991406,
2012-02-25, 02:14:04,VALID,1000.94,VALID,0,VALID,80.5839,VALID,0,VALID,25.7655,VALID,28,VALID,0.901563,
2012-02-25, 02:15:04,VALID,1000.94,VALID,0,VALID,80.5305,VALID,0,VALID,25.8064,VALID,39,VALID,0.634375,
2012-02-25, 02:16:04,VALID,1000.94,VALID,0,VALID,80.5457,VALID,0,VALID,25.8064,VALID,31,VALID,0.482031,
2012-02-25, 02:17:04,VALID,1000.91,VALID,0,VALID,80.4465,VALID,0,VALID,25.8239,VALID,28,VALID,0.858594,
2012-02-25, 02:18:04,VALID,1000.9,VALID,0,VALID,80.1643,VALID,0,VALID,25.8259,VALID,76,VALID,0.805859,
2012-02-25, 02:19:04,VALID,1000.91,VALID,0,VALID,80.3474,VALID,0,VALID,25.8044,VALID,79,VALID,0.279297,
2012-02-25, 02:20:04,VALID,1000.92,VALID,0,VALID,80.1719,VALID,0,VALID,25.8259,VALID,44,VALID,0.742969,
2012-02-25, 02:21:04,VALID,1000.9,VALID,0,VALID,79.9659,VALID,0,VALID,25.8259,VALID,107,VALID,1.46094,
2012-02-25, 02:22:04,VALID,1000.9,VALID,0,VALID,80.0727,VALID,0,VALID,25.8453,VALID,90,VALID,0.397266,
2012-02-25, 02:23:04,VALID,1000.86,VALID,0,VALID,79.8668,VALID,0,VALID,25.8648,VALID,72,VALID,0.905078,
2012-02-25, 02:24:04,VALID,1000.87,VALID,0,VALID,79.7905,VALID,0,VALID,25.8434,VALID,79,VALID,0.583203,
2012-02-25, 02:25:04,VALID,1000.85,VALID,0,VALID,79.8973,VALID,0,VALID,25.8648,VALID,79,VALID,0.972266,
2012-02-25, 02:26:04,VALID,1000.86,VALID,0,VALID,79.5921,VALID,0,VALID,25.8629,VALID,38,VALID,0.571094,
2012-02-25, 02:27:04,VALID,1000.85,VALID,0,VALID,79.3251,VALID,0,VALID,25.8823,VALID,76,VALID,1.44883,
2012-02-25, 02:28:04,VALID,1000.84,VALID,0,VALID,79.0581,VALID,0,VALID,25.9018,VALID,29,VALID,1.03359,
2012-02-25, 02:29:04,VALID,1000.85,VALID,0,VALID,78.7148,VALID,0,VALID,26.0206,VALID,92,VALID,1.03711,
2012-02-25, 02:30:04,VALID,1000.84,VALID,0,VALID,78.73,VALID,0,VALID,26.0167,VALID,56,VALID,0.575391,
2012-02-25, 02:31:04,VALID,1000.81,VALID,0,VALID,78.5241,VALID,0,VALID,26.0401,VALID,81,VALID,1.02422,
2012-02-25, 02:32:04,VALID,1000.82,VALID,0,VALID,78.6843,VALID,0,VALID,26.0401,VALID,11,VALID,1.05938,
2012-02-25, 02:33:04,VALID,1000.78,VALID,0,VALID,78.8674,VALID,0,VALID,25.9797,VALID,17,VALID,0.0402344,
2012-02-25, 02:34:04,VALID,1000.84,VALID,0,VALID,79.1115,VALID,0,VALID,25.9622,VALID,30,VALID,0.505078,
2012-02-25, 02:35:04,VALID,1000.81,VALID,0,VALID,78.9208,VALID,0,VALID,25.9817,VALID,86,VALID,1.90078,
2012-02-25, 02:36:04,VALID,1000.78,VALID,0,VALID,78.9665,VALID,0,VALID,25.9992,VALID,56,VALID,0.444141,
2012-02-25, 02:37:04,VALID,1000.77,VALID,0,VALID,79.0657,VALID,0,VALID,25.9992,VALID,61,VALID,1.40586,
2012-02-25, 02:38:04,VALID,1000.76,VALID,0,VALID,78.8521,VALID,0.0815089,VALID,26.0187,VALID,71,VALID,0.522266,
2012-02-25, 02:39:04,VALID,1000.75,VALID,0,VALID,78.8216,VALID,0,VALID,26.0401,VALID,36,VALID,0.944141,
2012-02-25, 02:40:04,VALID,1000.71,VALID,0,VALID,78.4249,VALID,0,VALID,26.0576,VALID,40,VALID,1.36094,
2012-02-25, 02:41:04,VALID,1000.71,VALID,0,VALID,78.3639,VALID,0,VALID,26.1355,VALID,100,VALID,0.959766,
2012-02-25, 02:42:04,VALID,1000.69,VALID,0,VALID,78.135,VALID,0,VALID,26.116,VALID,87,VALID,0.758984,
2012-02-25, 02:43:04,VALID,1000.69,VALID,0,VALID,78.3181,VALID,0,VALID,26.1375,VALID,89,VALID,0.680469,
2012-02-25, 02:44:04,VALID,1000.68,VALID,0,VALID,78.2571,VALID,0,VALID,26.116,VALID,73,VALID,1.07891,
2012-02-25, 02:45:04,VALID,1000.71,VALID,0,VALID,78.4936,VALID,0,VALID,26.0985,VALID,29,VALID,0.590234,
2012-02-25, 02:46:04,VALID,1000.67,VALID,0,VALID,78.6766,VALID,0,VALID,26.0596,VALID,45,VALID,0.493359,
2012-02-25, 02:47:04,VALID,1000.66,VALID,0,VALID,78.7072,VALID,0,VALID,26.0381,VALID,45,VALID,0.946094,
2012-02-25, 02:48:04,VALID,1000.64,VALID,0,VALID,78.5088,VALID,0,VALID,26.0381,VALID,67,VALID,0.830469,
2012-02-25, 02:49:04,VALID,1000.59,VALID,0,VALID,78.6538,VALID,0,VALID,26.0596,VALID,17,VALID,0.743359,
2012-02-25, 02:50:04,VALID,1000.59,VALID,0,VALID,78.7758,VALID,0,VALID,26.0596,VALID,58,VALID,0.298438,
2012-02-25, 02:51:04,VALID,1000.56,VALID,0,VALID,78.2952,VALID,0,VALID,26.0771,VALID,84,VALID,1.03047,
2012-02-25, 02:52:04,VALID,1000.54,VALID,0,VALID,78.3257,VALID,0,VALID,26.0771,VALID,70,VALID,0.646094,
2012-02-25, 02:53:04,VALID,1000.52,VALID,0,VALID,78.3486,VALID,0,VALID,26.0966,VALID,41,VALID,0.700781,
2012-02-25, 02:54:04,VALID,1000.53,VALID,0,VALID,78.3944,VALID,0,VALID,26.0985,VALID,17,VALID,0.2125,
2012-02-25, 02:55:04,VALID,1000.52,VALID,0,VALID,78.3867,VALID,0,VALID,26.0187,VALID,58,VALID,1.29023,
2012-02-25, 02:56:04,VALID,1000.52,VALID,0,VALID,78.5241,VALID,0,VALID,26.0187,VALID,14,VALID,1.48398,
2012-02-25, 02:57:04,VALID,1000.55,VALID,0,VALID,78.6232,VALID,0,VALID,26.0401,VALID,34,VALID,0.609375,
2012-02-25, 02:58:04,VALID,1000.56,VALID,0,VALID,78.814,VALID,0,VALID,25.9817,VALID,85,VALID,0.861719,
2012-02-25, 02:59:04,VALID,1000.53,VALID,0,VALID,78.8445,VALID,0,VALID,25.9408,VALID,84,VALID,0.71875,
2012-02-25, 03:00:04,VALID,1000.55,VALID,0,VALID,79.1039,VALID,0,VALID,25.9213,VALID,80,VALID,0.803125,
2012-02-25, 03:01:04,VALID,1000.54,VALID,0,VALID,79.0199,VALID,0.0815089,VALID,25.9232,VALID,46,VALID,0.915234,
2012-02-25, 03:02:04,VALID,1000.55,VALID,0,VALID,79.1649,VALID,0,VALID,25.8823,VALID,40,VALID,0.245703,
2012-02-25, 03:03:04,VALID,1000.57,VALID,0,VALID,79.4166,VALID,0,VALID,25.8648,VALID,90,VALID,0.282422,
2012-02-25, 03:04:04,VALID,1000.55,VALID,0,VALID,79.5158,VALID,0,VALID,25.8044,VALID,31,VALID,0.637109,
2012-02-25, 03:05:04,VALID,1000.52,VALID,0,VALID,79.4853,VALID,0,VALID,25.785,VALID,71,VALID,1.20156,
2012-02-25, 03:06:04,VALID,1000.54,VALID,0,VALID,79.4395,VALID,0,VALID,25.8044,VALID,91,VALID,1.23359,
2012-02-25, 03:07:04,VALID,1000.54,VALID,0,VALID,79.2717,VALID,0,VALID,25.8434,VALID,59,VALID,0.897656,
2012-02-25, 03:08:04,VALID,1000.53,VALID,0,VALID,79.0352,VALID,0,VALID,25.9018,VALID,40,VALID,0.733594,
2012-02-25, 03:09:04,VALID,1000.54,VALID,0,VALID,78.8369,VALID,0,VALID,25.9622,VALID,52,VALID,0.538672,
2012-02-25, 03:10:04,VALID,1000.53,VALID,0,VALID,78.875,VALID,0,VALID,25.9427,VALID,57,VALID,1.1918,
2012-02-25, 03:11:04,VALID,1000.5,VALID,0,VALID,79.0123,VALID,0,VALID,25.9213,VALID,58,VALID,0.557031,
2012-02-25, 03:12:04,VALID,1000.51,VALID,0,VALID,79.1954,VALID,0,VALID,25.8823,VALID,30,VALID,0.285156,
2012-02-25, 03:13:04,VALID,1000.52,VALID,0,VALID,79.3938,VALID,0,VALID,25.8434,VALID,30,VALID,0.283203,
2012-02-25, 03:14:04,VALID,1000.49,VALID,0,VALID,79.7676,VALID,0,VALID,25.785,VALID,28,VALID,0.539453,
2012-02-25, 03:15:04,VALID,1000.51,VALID,0,VALID,79.943,VALID,0,VALID,25.7869,VALID,42,VALID,0.843359,
2012-02-25, 03:16:04,VALID,1000.5,VALID,0,VALID,79.9354,VALID,0,VALID,25.746,VALID,44,VALID,0.241406,
2012-02-25, 03:17:04,VALID,1000.49,VALID,0,VALID,80.2253,VALID,0,VALID,25.7285,VALID,23,VALID,0.914844,
2012-02-25, 03:18:04,VALID,1000.52,VALID,0,VALID,80.0041,VALID,0,VALID,25.7071,VALID,53,VALID,0.887891,
2012-02-25, 03:19:04,VALID,1000.5,VALID,0,VALID,80.0117,VALID,0,VALID,25.7071,VALID,45,VALID,0.45625,
2012-02-25, 03:20:04,VALID,1000.5,VALID,0,VALID,79.9507,VALID,0,VALID,25.7265,VALID,61,VALID,0.761719,
2012-02-25, 03:21:04,VALID,1000.52,VALID,0,VALID,80.0727,VALID,0,VALID,25.746,VALID,103,VALID,1.22578,
2012-02-25, 03:22:04,VALID,1000.49,VALID,0,VALID,79.8668,VALID,0,VALID,25.8044,VALID,94,VALID,0.453906,
2012-02-25, 03:23:04,VALID,1000.51,VALID,0,VALID,79.8515,VALID,0,VALID,25.8064,VALID,46,VALID,0.323438,
2012-02-25, 03:24:04,VALID,1000.5,VALID,0,VALID,79.7981,VALID,0,VALID,25.785,VALID,72,VALID,1.3625,
2012-02-25, 03:25:04,VALID,1000.49,VALID,0,VALID,79.7447,VALID,0,VALID,25.8239,VALID,72,VALID,0.729297,
2012-02-25, 03:26:04,VALID,1000.49,VALID,0,VALID,79.7142,VALID,0,VALID,25.8044,VALID,40,VALID,0.271875,
2012-02-25, 03:27:04,VALID,1000.51,VALID,0,VALID,79.8133,VALID,0,VALID,25.8044,VALID,98,VALID,1.20234,
2012-02-25, 03:28:04,VALID,1000.49,VALID,0,VALID,79.7371,VALID,0,VALID,25.8259,VALID,68,VALID,0.817969,
2012-02-25, 03:29:04,VALID,1000.52,VALID,0,VALID,79.9659,VALID,0,VALID,25.7655,VALID,58,VALID,0.309766,
2012-02-25, 03:30:04,VALID,1000.48,VALID,0,VALID,79.9888,VALID,0,VALID,25.7265,VALID,73,VALID,1.26406,
2012-02-25, 03:31:04,VALID,1000.49,VALID,0,VALID,80.0117,VALID,0,VALID,25.7674,VALID,50,VALID,0.935938,
2012-02-25, 03:32:04,VALID,1000.47,VALID,0,VALID,80.1566,VALID,0,VALID,25.748,VALID,30,VALID,0.433203,
2012-02-25, 03:33:04,VALID,1000.44,VALID,0,VALID,80.2558,VALID,0,VALID,25.6876,VALID,49,VALID,0.0941406,
2012-02-25, 03:34:04,VALID,1000.41,VALID,0,VALID,80.3321,VALID,0,VALID,25.6486,VALID,49,VALID,0.311719,
2012-02-25, 03:35:04,VALID,1000.42,VALID,0,VALID,80.4847,VALID,0,VALID,25.6681,VALID,11,VALID,0.676953,
2012-02-25, 03:36:04,VALID,1000.46,VALID,0,VALID,80.6373,VALID,0,VALID,25.6506,VALID,36,VALID,0.729688,
2012-02-25, 03:37:04,VALID,1000.43,VALID,0,VALID,80.7975,VALID,0,VALID,25.6097,VALID,32,VALID,0.546484,
2012-02-25, 03:38:04,VALID,1000.42,VALID,0,VALID,80.9882,VALID,0,VALID,25.5921,VALID,38,VALID,0.521094,
2012-02-25, 03:39:04,VALID,1000.44,VALID,0,VALID,81.301,VALID,0,VALID,25.5318,VALID,16,VALID,0.914063,
2012-02-25, 03:40:04,VALID,1000.44,VALID,0,VALID,81.4917,VALID,0,VALID,25.4734,VALID,355,VALID,0.883203,
2012-02-25, 03:41:04,VALID,1000.44,VALID,0,VALID,81.507,VALID,0,VALID,25.4539,VALID,69,VALID,1.02539,
2012-02-25, 03:42:04,VALID,1000.48,VALID,0,VALID,81.5909,VALID,0,VALID,25.4539,VALID,58,VALID,0.419922,
2012-02-25, 03:43:04,VALID,1000.45,VALID,0,VALID,81.8121,VALID,0,VALID,25.4149,VALID,346,VALID,0.667188,
2012-02-25, 03:44:04,VALID,1000.48,VALID,0,VALID,81.7511,VALID,0,VALID,25.4149,VALID,28,VALID,1.02148,
2012-02-25, 03:45:04,VALID,1000.48,VALID,0,VALID,81.6214,VALID,0,VALID,25.4363,VALID,6,VALID,0.879297,
2012-02-25, 03:46:04,VALID,1000.48,VALID,0,VALID,81.5375,VALID,0,VALID,25.4558,VALID,31,VALID,0.303125,